This is the latest recevied weather packets stored in our database for station/object G0TGD-10. If no packets are shown the sender has not sent any weather packets the latest 10 day(s).
| Time | Temp. | Humidity | Pressure | Rain* | Wind** | Luminosity | Snow |
|---|---|---|---|---|---|---|---|
| 1778077289 | 12.22° C | 60% | 1015 hPa | - | - | - | - |
| 1778076389 | 12.22° C | 60% | 1015.1 hPa | - | - | - | - |
| 1778075489 | 12.78° C | 60% | 1014.9 hPa | - | - | - | - |
| 1778074588 | 12.78° C | 60% | 1015 hPa | - | - | - | - |
| 1778073688 | 13.33° C | 59% | 1014.9 hPa | - | - | - | - |
| 1778072788 | 15.56° C | 57% | 1014.8 hPa | - | - | - | - |
| 1778071888 | 16.11° C | 56% | 1014.7 hPa | - | - | - | - |
| 1778070988 | 17.22° C | 55% | 1014.6 hPa | - | - | - | - |
| 1778070088 | 16.11° C | 59% | 1014.6 hPa | - | - | - | - |
| 1778069188 | 14.44° C | 60% | 1014.6 hPa | - | - | - | - |
| 1778068288 | 13.89° C | 59% | 1014.6 hPa | - | - | - | - |
| 1778067388 | 13.89° C | 59% | 1014.7 hPa | - | - | - | - |
| 1778066488 | 16.11° C | 57% | 1014.6 hPa | - | - | - | - |
| 1778065588 | 15° C | 59% | 1014.6 hPa | - | - | - | - |
| 1778064688 | 15° C | 59% | 1014.8 hPa | - | - | - | - |
| 1778063787 | 15° C | 60% | 1014.6 hPa | - | - | - | - |
| 1778062887 | 17.22° C | 57% | 1014.5 hPa | - | - | - | - |
| 1778061987 | 21.67° C | 54% | 1014.4 hPa | - | - | - | - |
| 1778061087 | 19.44° C | 56% | 1014.5 hPa | - | - | - | - |
| 1778060187 | 18.33° C | 58% | 1014.6 hPa | - | - | - | - |
| 1778059287 | 18.89° C | 56% | 1014.5 hPa | - | - | - | - |
| 1778058387 | 17.78° C | 59% | 1014.6 hPa | - | - | - | - |
| 1778057487 | 17.78° C | 61% | 1014.8 hPa | - | - | - | - |
| 1778056587 | 15.56° C | 64% | 1014.9 hPa | - | - | - | - |
| 1778055687 | 11.67° C | 68% | 1015.1 hPa | - | - | - | - |
* Rain since midnight (hover to see other rain measurements)
** Current wind speed in m/s (hover to see current wind gust speed)